Location: Montreal
(45.5000°N, 73.5833°W)
Time: 23:53:49
(UTC-05:00)

ISS - Visible Passes

Search period start: 17 January 2026 00:00
Search period end: 27 January 2026 00:00
Orbit: 413 x 424 km, 51.6° (Epoch: 17 January)

Date Brightness Start Highest point End Pass type
(mag) Time Alt. Az. Time Alt. Az. Time Alt. Az.
17 Jan -3.7 17:15:07 10° WSW 17:18:27 81° NNW 17:21:48 10° ENE visible
17 Jan -2.0 18:52:34 10° WNW 18:54:48 26° NW 18:54:48 26° NW visible
18 Jan -2.6 18:04:33 10° W 18:07:38 34° NNW 18:08:58 24° NNE visible
19 Jan -3.0 17:16:31 10° W 17:19:42 42° NNW 17:22:55 10° NE visible
19 Jan -1.8 18:54:06 10° WNW 18:56:03 23° NNW 18:56:03 23° NNW visible
20 Jan -2.4 18:06:05 10° WNW 18:09:02 27° N 18:10:09 22° NNE visible
21 Jan -2.5 17:18:01 10° WNW 17:21:00 30° N 17:24:01 10° NE visible
21 Jan -1.9 18:55:19 10° NW 18:57:12 25° NNW 18:57:12 25° NNW visible
22 Jan -2.5 18:07:22 10° NW 18:10:21 28° N 18:11:18 24° NE visible
22 Jan -0.3 19:44:10 10° WNW 19:44:15 11° WNW 19:44:15 11° WNW visible
23 Jan -2.4 17:19:21 10° WNW 17:22:16 27° N 17:25:12 10° ENE visible
23 Jan -2.3 18:56:16 10° NW 18:58:23 32° NW 18:58:23 32° NW visible
24 Jan -3.1 18:08:20 10° NW 18:11:30 38° NNE 18:12:34 29° ENE visible
24 Jan -0.4 19:45:07 10° WNW 19:45:31 13° WNW 19:45:31 13° WNW visible
25 Jan -2.8 17:20:22 10° NW 17:23:25 32° NNE 17:26:28 10° ENE visible
25 Jan -3.1 18:57:05 10° WNW 18:59:46 53° WNW 18:59:46 53° WNW visible
26 Jan -3.8 18:09:06 10° WNW 18:12:27 68° NNE 18:14:06 27° ESE visible
26 Jan -0.5 19:46:23 10° W 19:47:04 14° W 19:47:04 14° W visible
